Meteo Giornale » Osservazioni meteo Gran Bretagna » Londra-Gatwick AP

ore: 13:50 - Osservazioni Meteo Londra-Gatwick AP
Lat. 51° 9' N Lon. 0° 11' W Alt. 62 metri s.l.m.

nuvoloso

21 °C

Nuvoloso

Temp. 24 Ore

12 °C

24 °C

Ovest/Sud-Ovest

16.7 Km/h

Dew point 10 °C

Umidità 49 %

Visibilità  10 Km

Il sole sorge alle ore 06:14

Il sole tramonta alle ore 19:47

Data e Ora Cielo e Fenomeni T °C DP °C Um. % Pres. hPa Vis. km Vento km/h
Oggi h: 13:50 nuvoloso Nuvoloso 21 10 49 1021 10 O/SO 16.7
Oggi h: 13:20 nuvoloso Nuvoloso 21 10 49 1021 10 O/SO 13
Oggi h: 12:50 nuvoloso Nuvoloso 20 10 52 1021 10 SO 16.7
Oggi h: 12:20 poco_nuvoloso Poco Nuvoloso 20 10 52 1021 10 O/SO 16.7
Oggi h: 11:50 poco_nuvoloso Poco Nuvoloso 20 10 52 1021 10 O 16.7
Oggi h: 11:20 poco_nuvoloso Poco Nuvoloso 19 10 55 1021 10 O 14.8
Oggi h: 10:50 poco_nuvoloso Poco Nuvoloso 19 10 55 1021 10 SO 11.1
Oggi h: 10:20 sereno Sereno 18 10 59 1022 10 O/SO 11.1
Oggi h: 09:50 sereno Sereno 17 10 63 1021 10 O 11.1
Oggi h: 09:20 sereno Sereno 16 11 72 1021 10 O/SO 7.4
Oggi h: 08:50 sereno Sereno 14 12 87 1021 10 N 5.5
Oggi h: 08:20 sereno Sereno 14 11 82 1021 10 N 5.5
Oggi h: 07:50 sereno Sereno 13 11 87 1021 10 N 5.5
Oggi h: 07:20 sereno Sereno 13 11 87 1020 10 SO 7.4
Oggi h: 06:50 sereno Sereno 12 11 93 1020 10 SO 7.4
Oggi h: 06:20 sereno Sereno 12 10 87 1020 10 N 3.7
Oggi h: 05:50 sereno Sereno 12 11 93 1020 10 N 5.5
Oggi h: 05:20 sereno Sereno 12 11 93 1020 10 N 5.5
Oggi h: 04:50 sereno Sereno 12 11 93 1020 10 N 3.7
Oggi h: 04:20 sereno Sereno 12 11 93 1020 10 N 5.5
Oggi h: 03:50 sereno Sereno 13 11 87 1020 10 N 5.5
Oggi h: 03:20 sereno Sereno 13 11 87 1020 10 N 5.5
Oggi h: 02:50 sereno Sereno 14 11 82 1020 10 N 5.5
Oggi h: 02:20 sereno Sereno 14 11 82 1019 10 N 5.5
Oggi h: 01:50 sereno Sereno 15 11 76 1019 10 O/NO 9.3
Oggi h: 01:20 poco_nuvoloso Poco Nuvoloso 15 11 76 1019 10 N 5.5
Oggi h: 00:50 poco_nuvoloso Poco Nuvoloso 15 12 82 1019 10 O/SO 7.4
Oggi h: 00:20 poco_nuvoloso Poco Nuvoloso 15 12 82 1019 10 O/SO 7.4
Ieri h: 23:50 sereno Sereno 16 11 72 1019 10 O/SO 9.3
Ieri h: 23:20 sereno Sereno 16 11 72 1019 10 O/SO 14.8
Ieri h: 22:50 sereno Sereno 16 11 72 1019 10 O/SO 14.8
Ieri h: 22:20 sereno Sereno 17 11 67 1018 10 O/SO 13
Ieri h: 21:50 sereno Sereno 17 11 67 1018 10 O 13
Ieri h: 21:20 sereno Sereno 17 11 67 1018 10 O/SO 13
Ieri h: 20:50 sereno Sereno 18 11 63 1017 10 O/SO 11.1
Ieri h: 20:20 sereno Sereno 19 11 59 1017 10 O 14.8
Ieri h: 19:50 sereno Sereno 20 12 59 1017 10 O 16.7
Ieri h: 19:20 sereno Sereno 20 12 59 1016 10 O 22.2
Ieri h: 18:50 poco_nuvoloso Poco Nuvoloso 21 12 56 1016 10 O 25.9
Ieri h: 18:20 poco_nuvoloso Poco Nuvoloso 22 12 53 1015 10 O 25.9
Ieri h: 17:50 nuvoloso Nuvoloso 22 13 56 1015 10 O 25.9
Ieri h: 17:20 nuvoloso Nuvoloso 22 12 53 1015 10 O 20.3
Ieri h: 16:50 nuvoloso Nuvoloso 24 12 47 1014 10 O 24
Ieri h: 16:20 nuvoloso Nuvoloso 24 12 47 1014 10 O 22.2
Ieri h: 15:50 nuvoloso Nuvoloso 23 12 49 1014 10 O/SO 25.9
Ieri h: 15:20 nuvoloso Nuvoloso 23 12 49 1014 10 O 24
Ieri h: 14:50 nuvoloso Nuvoloso 22 13 56 1013 10 O 24